Regional Weather Roundup
Issued by NWS

Home | Current Version | Previous Version | Text Only | Print | Product List | Glossary Off
Versions: 1 2 3 4 5 6 7 8 9 10 11 12 13 14 15 16 17 18 19 20 21 22 23 24 25 26 27

000
ASUS45 KCYS 030610
RWRWY

WYOMING REGIONAL WEATHER ROUNDUP
NATIONAL WEATHER SERVICE CHEYENNE WY
1200 AM MDT TUE MAY 03 2016

NOTE:  "FAIR" INDICATES FEW OR NO CLOUDS BELOW 12,000 FEET
WITH NO SIGNIFICANT WEATHER AND/OR OBSTRUCTIONS TO VISIBILITY.

WYZ001-030700-
YELLOWSTONE NATIONAL PARK

CITY           SKY/WX    TMP DP  RH WIND       PRES   REMARKS
LK YELLOWSTONE   N/A     31  24  75 CALM      30.32R
6HR MIN TEMP:  30; 6HR MAX TEMP:  52;

W YELLOWSTONE  NOT AVBL

$$
WYZ002>013-054>058-071-098>099-030700-
NORTHERN WYOMING

CITY           SKY/WX    TMP DP  RH WIND       PRES   REMARKS
JACKSON        FAIR      37  27  65 N7        30.25R WCI  32
CODY           FAIR      48  30  49 SW6       30.18F
GREYBULL       FAIR      54  29  38 SE5       30.13R
6HR MIN TEMP:  54; 6HR MAX TEMP:  71;

WORLAND        FAIR      45  36  70 S6        30.13S
6HR MIN TEMP:  45; 6HR MAX TEMP:  67;

SHERIDAN       FAIR      46  35  65 CALM      30.15F
6HR MIN TEMP:  46; 6HR MAX TEMP:  65;

BUFFALO          N/A    N/A N/A N/A MISG      30.18S
GILLETTE       FAIR      44  35  70 W13       30.12S
6HR MIN TEMP:  41; 6HR MAX TEMP:  60;

HULETT         FAIR      50  36  57 CALM      30.12S
NEWCASTLE      FAIR      46  32  57 N8        30.10S

$$
WYZ014>020-022>026-101>103-030700-
CENTRAL WYOMING

CITY           SKY/WX    TMP DP  RH WIND       PRES   REMARKS
BIG PINEY      FAIR      37  19  48 NE12      30.26R WCI  29
6HR MIN TEMP:  37; 6HR MAX TEMP:  60;

PINEDALE       FAIR      36  21  55 CALM      30.27R
DUBOIS         FAIR      36  25  64 W6        30.27R WCI  31
LANDER         FAIR      46  28  49 CALM      30.19F
6HR MIN TEMP:  44; 6HR MAX TEMP:  61;

RIVERTON       FAIR      46  32  58 W6        30.21R
6HR MIN TEMP:  45; 6HR MAX TEMP:  60;

CASPER         FAIR      37  32  82 SW3       30.19S
6HR MIN TEMP:  35; 6HR MAX TEMP:  58;

DOUGLAS        FAIR      40  33  76 N7        30.17S
6HR MIN TEMP:  39; 6HR MAX TEMP:  61;


$$
WYZ021-027>030-104>119-030700-
SOUTHERN WYOMING

CITY           SKY/WX    TMP DP  RH WIND       PRES   REMARKS
EVANSTON       FAIR      43  24  47 E5        30.26S
6HR MIN TEMP:  42; 6HR MAX TEMP:  59;

KEMMERER         N/A     41  19  42 N3        30.26S
FORT BRIDGER   CLEAR     43  23  45 W9        30.29R
ROCK SPRINGS   FAIR      45  17  32 S3        30.24S
6HR MIN TEMP:  43; 6HR MAX TEMP:  55;

DIXON          FAIR      35  22  59 CALM      30.26R
RAWLINS        FAIR      33  24  69 NW7       30.24R WCI  27
6HR MIN TEMP:  33; 6HR MAX TEMP:  58;

SARATOGA       FAIR      32  21  64 CALM      30.24S
LARAMIE        FAIR      31  24  75 CALM      30.21S
6HR MIN TEMP:  28; 6HR MAX TEMP:  48;

CHEYENNE       FAIR      43  27  53 N14       30.15S
6HR MIN TEMP:  43; 6HR MAX TEMP:  55;

TORRINGTON     MOCLDY    45  35  68 SE8       30.09R
6HR MIN TEMP:  45; 6HR MAX TEMP:  64;

PINE BLUFFS    FAIR      39  32  75 NW9       30.12S WCI  33

$$




USA.gov is the U.S. government's official web portal to all federal, state and local government web resources and services.